Location: Linz
(48.3300°N, 14.3000°E)
Time: 00:57:57
(UTC+01:00)

OTV 5 (USA 277) - Pass Details

Date: 14 November 2017
Orbit: 404 x 417 km, 43.0° (Epoch: 07 September)

Event Time Altitude Azimuth Distance (km) Brightness Sun altitude
Exits shadow 05:02:24 31° 173° (S) 741 ? -20.9°
Drops below altitude 10° 05:05:18 10° 111° (ESE) 1,456 ? -20.4°
Sets 05:07:32 0° 101° (E) 2,316 ? -20.1°
